Вернуться в каталог

COSMOS 2148

АктивенВоенныеPO
NORAD 21304·PAYLOAD·🇷🇺 Russia

Запущен May 16, 1991 с Plesetsk Cosmodrome

Loading…

Ближайшие Пролёты (ближайшие 24 часа)

TLE

СвежийSource: Space-Track

Эпоха: Sep 14, 2026, 06:43 UTC

1 21304U 91033F   26257.28013454  .00000017  00000-0  31629-4 0  9998
2 21304  82.5733 212.7446 0024458 109.0366  55.4412 12.65996014632379

Отслеживайте COSMOS 2148 в реальном времени с AllMySat

Download on the App Store